Location: Foligno
(42.9600°N, 12.7050°E)
Time: 11:11:02
(UTC+02:00)

ISS - Pass Details

Date: 07 May 2021
Orbit: 417 x 422 km, 51.6° (Epoch: 15 May)

Event Time Altitude Azimuth Distance (km) Brightness Sun altitude
Exits shadow 03:35:20 16° 313° (NW) 1,170 -1.5 -21.0°
Maximum altitude 03:36:47 21° 348° (NNW) 995 -1.5 -20.9°
Drops below altitude 10° 03:39:28 10° 41° (NE) 1,506 0.3 -20.6°
Sets 03:41:55 0° 58° (ENE) 2,373 1.4 -20.3°
